Location: A�t Bou Chrif
(32.7193°N, 5.2385°W)
Time: 02:54:46
(UTC+00:00)

ERS-1 Rocket - Pass Details

Date: 08 August 2020
Orbit: 753 x 757 km, 98.5° (Epoch: 20 September)

Event Time Altitude Azimuth Distance (km) Brightness Sun altitude
Exits shadow 21:36:07 34° 44° (NE) 1,229 4.0 -26.7°
Drops below altitude 10° 21:39:41 10° 5° (N) 2,284 5.9 -27.2°
Sets 21:42:07 0° 358° (N) 3,212 6.9 -27.6°
